Dania, FL

5:17 AM EST on February 09, 2016 (GMT -0500)
Fort Lauderdale-Hollywood International

Weather History for KFLL - May, 2014

Change the Weather History Date:

Saturday, May 24, 2014

  Actual Average Record
Temperature  
Mean Temperature 83 °F 81 °F  
Max Temperature 91 °F 87 °F 94 °F (1951)
Min Temperature 75 °F 76 °F 63 °F (1949)
Degree Days  
Heating Degree Days 0 0  
Month to date heating degree days 0 0  
Since 1 July heating degree days 81 112  
Cooling Degree Days 18 16  
Month to date cooling degree days 367 352  
Year to date cooling degree days 1419 1299  
Growing Degree Days 32 (Base 50)    
Moisture  
Dew Point 68 °F    
Average Humidity 60    
Maximum Humidity 79    
Minimum Humidity 41    
Precipitation  
Precipitation 0.00 in 0.20 in 4.10 in (1958)
Month to date precipitation 6.37 3.09  
Year to date precipitation 18.76 15.93  
Snow  
Snow 0.00 in - - ()
Month to date snowfall 0.0  
Since 1 July snowfall 0.0  
Snow Depth 0.00 in    
Sea Level Pressure  
Sea Level Pressure 30.06 in    
Wind  
Wind Speed 9 mph (South)    
Max Wind Speed 20 mph    
Max Gust Speed 22 mph    
Visibility 10 miles    
Events      
T = Trace of Precipitation, MM = Missing Value Source: NWS Daily Summary

Daily Weather History Graph

Daily Weather History Graph

Search for Another Location

Airport or City:

Trip Planner

Search our weather history database for the weather conditions in past years. The results will help you decide how hot, cold, wet, or windy it might be!

Date:

Astronomy

May. 24, 2014 Rise Set
Actual Time 6:30 AM EDT 8:04 PM EDT
Civil Twilight 6:05 AM EDT 8:30 PM EDT
Nautical Twilight 5:34 AM EDT 9:00 PM EDT
Astronomical Twilight 5:02 AM EDT 9:32 PM EDT
Moon 3:33 AM EDT (5/24) 4:22 PM EDT (5/24)
Length of Visible Light 14h 24m
Length of Day
13h 34m
Waning Crescent, 18% of the Moon is Illuminated
May 24
Waning Crescent
May 28
New
Jun 5
First Quarter
Jun 13
Full
Jun 19
Last Quarter

Hourly Weather History & Observations

Time (EDT) Temp. Heat Index Dew Point Humidity Pressure Visibility Wind Dir Wind Speed Gust Speed Precip Events Conditions
12:53 AM 79.0 °F - 66.9 °F 66% 30.08 in 10.0 mi South 6.9 mph - N/A   Clear
1:53 AM 79.0 °F - 66.9 °F 66% 30.07 in 10.0 mi SSW 4.6 mph - N/A   Clear
2:53 AM 78.1 °F - 66.9 °F 68% 30.05 in 10.0 mi SSW 4.6 mph - N/A   Clear
3:53 AM 77.0 °F - 66.9 °F 71% 30.05 in 10.0 mi SW 3.5 mph - N/A   Clear
4:53 AM 75.0 °F - 68.0 °F 79% 30.04 in 10.0 mi WSW 4.6 mph - N/A   Clear
5:53 AM 75.0 °F - 68.0 °F 79% 30.06 in 10.0 mi West 5.8 mph - N/A   Clear
6:53 AM 75.0 °F - 68.0 °F 79% 30.07 in 10.0 mi WSW 5.8 mph - N/A   Clear
7:53 AM 77.0 °F - 68.0 °F 74% 30.08 in 10.0 mi SW 6.9 mph - N/A   Partly Cloudy
8:53 AM 80.1 °F 82.7 °F 68.0 °F 67% 30.08 in 10.0 mi SW 8.1 mph - N/A   Partly Cloudy
9:53 AM 82.0 °F 84.5 °F 66.9 °F 60% 30.09 in 10.0 mi SW 8.1 mph - N/A   Partly Cloudy
10:53 AM 84.0 °F 85.4 °F 64.0 °F 51% 30.09 in 10.0 mi West 5.8 mph - N/A   Clear
11:53 AM 89.1 °F 90.0 °F 63.0 °F 42% 30.09 in 10.0 mi Variable 5.8 mph - N/A   Clear
12:53 PM 87.1 °F 92.0 °F 70.0 °F 57% 30.08 in 10.0 mi SE 11.5 mph - N/A   Partly Cloudy
1:53 PM 87.1 °F 92.8 °F 71.1 °F 59% 30.06 in 10.0 mi SE 13.8 mph - N/A   Partly Cloudy
2:53 PM 86.0 °F 90.7 °F 70.0 °F 59% 30.05 in 10.0 mi SE 16.1 mph - N/A   Partly Cloudy
3:53 PM 86.0 °F 90.7 °F 70.0 °F 59% 30.03 in 10.0 mi SE 17.3 mph - N/A   Mostly Cloudy
4:53 PM 87.1 °F 92.0 °F 70.0 °F 57% 30.02 in 10.0 mi SE 18.4 mph - N/A   Mostly Cloudy
5:53 PM 86.0 °F 90.7 °F 70.0 °F 59% 30.02 in 10.0 mi SE 13.8 mph - N/A   Mostly Cloudy
6:53 PM 84.0 °F 88.4 °F 70.0 °F 63% 30.01 in 10.0 mi SE 13.8 mph - N/A   Mostly Cloudy
7:53 PM 82.9 °F 86.5 °F 69.1 °F 63% 30.03 in 10.0 mi SSE 9.2 mph - N/A   Mostly Cloudy
8:53 PM 82.0 °F 85.9 °F 70.0 °F 67% 30.05 in 10.0 mi SSE 8.1 mph - N/A   Mostly Cloudy
9:53 PM 82.0 °F 85.9 °F 70.0 °F 67% 30.06 in 10.0 mi South 8.1 mph - N/A   Mostly Cloudy
10:53 PM 81.0 °F 84.9 °F 71.1 °F 72% 30.07 in 10.0 mi South 5.8 mph - N/A   Mostly Cloudy
11:53 PM 80.1 °F 83.2 °F 70.0 °F 71% 30.08 in 10.0 mi South 6.9 mph - N/A   Mostly Cloudy